Regional Weather Roundup
Issued by NWS Sterling, VA

Home | Current Version | Previous Version | Graphics & Text | Print | Product List | Glossary On
Versions: 1 2 3 4 5 6 7 8 9 10 11 12 13 14 15 16 17 18 19 20 21 22 23 24 25 26 27 28 29 30 31 32 33 34 35 36 37 38 39 40 41 42 43 44 45 46 47 48 49 50
000
ASUS41 KLWX 280510
RWRLWX

REGIONAL WEATHER ROUNDUP
NATIONAL WEATHER SERVICE BALTIMORE MD/WASHINGTON DC
100 AM EDT TUE JUL 28 2015

Note: "FAIR" indicates few or no clouds below 12,000 feet
with no significant weather and/or obstructions to visibility.
 TC=TEMPERATURE CELSIUS

 * =Non NWS site. Station does not report precipitation (e.g. rain,
    snow, etc.), thunder, or fog.

DCZ001-MDZ009-015-VAZ040>042-051-053>054-280600-
WASHINGTON METRO

CITY           SKY/WX    TMP DP  RH WIND       PRES   REMARKS
WASHINGTON NAT PTCLDY    78  72  81 S5        30.02R
DULLES         PTCLDY    72  70  93 CALM      30.02S
ANDREWS AFB    CLEAR     74  73  95 SW5       30.01S FOG
FT BELVOIR     CLEAR     72  70  93 S1        30.01S
QUANTICO       CLEAR     75  67  76 W3        30.02S
COLLEGE PARK*  CLEAR     73  73 100 CALM      30.01S
LEESBURG*      CLEAR     73  73 100 CALM      30.03S
MANASSAS*      CLEAR     73  73 100 S3        30.02S
GAITHERSBURG*  CLEAR     72  68  88 CALM      30.06S

$$

MDZ006>007-011-014-280600-
BALTIMORE METRO

CITY           SKY/WX    TMP DP  RH WIND       PRES   REMARKS
BWI AIRPORT    PTCLDY    74  73  97 CALM      30.01S
MD SCIENCE CTR   N/A     78  74  87 MISG      30.01S
MARTIN STATE   PTCLDY    77  77 100 CALM      30.02S
ANNAPOLIS      CLEAR     78  71  79 CALM      30.01R
FORT MEADE*    CLEAR     70  68  94 CALM      30.03F

$$

MDZ012-015-019>023-280600-
MARYLAND EASTERN SHORE

CITY           SKY/WX    TMP DP  RH WIND       PRES   REMARKS
OCEAN CITY     CLEAR     77  72  84 SW6       30.02S
SALISBURY      PTCLDY    72  71  97 CALM      30.02R
BAY BRIDGE AP*   N/A     77  73  88 CALM      30.01S
CAMBRIDGE*     CLEAR     77  72  83 CALM      30.01S
EASTON*        CLEAR     75  75 100 CALM      30.05S

$$

MDZ017>025-280600-
SOUTHERN MARYLAND

CITY           SKY/WX    TMP DP  RH WIND       PRES   REMARKS
PATUXENT RIVER CLEAR     72  69  90 SW5       30.00F
ST INIGOES     CLEAR     72  69  90 CALM      30.00S
LEONARDTOWN*   CLEAR     70  68  94 CALM      30.03F

$$

MDZ003>005-280600-
NORTH CENTRAL MARYLAND

CITY           SKY/WX    TMP DP  RH WIND       PRES   REMARKS
FREDERICK*       N/A    N/A N/A N/A MISG        N/A
HAGERSTOWN APT CLEAR     76  70  82 E3        30.03F
WESTMINSTER*   CLEAR     73  72  94 CALM      30.05S FOG

$$

MDZ501>502-280600-
WESTERN MARYLAND

CITY           SKY/WX    TMP DP  RH WIND       PRES   REMARKS
OAKLAND*       CLEAR     64 N/A N/A SE6       30.14S
CUMBERLAND*    CLEAR     72  72 100 N5        30.07S

$$

VAZ025>031-280600-
SHENANDOAH VALLEY

CITY           SKY/WX    TMP DP  RH WIND       PRES   REMARKS
WINCHESTER*    CLEAR     72  70  94 CALM      30.03S
FRONT ROYAL*   MOCLDY    70  70 100 CALM      30.03S VSB 1
LURAY*         FAIR      70  70 100 W3        30.04S
NEW MARKET*    FAIR      69  69 100 CALM      30.03S
STAUNTON*      MOCLDY    73  69  88 CALM      30.08S
WAYNESBORO*    MOCLDY    69  69 100 CALM      30.07S

$$

WVZ021-048>050-054>055-280600-
EASTERN WEST VIRGINIA PANHANDLE

CITY           SKY/WX    TMP DP  RH WIND       PRES   REMARKS
MARTINSBURG    CLEAR     71  70  96 CALM      30.03S FOG
PETERSBURG*    PTCLDY   N/A N/A N/A CALM      30.05F HAZE

$$

VAZ036>039-050-280600-
CENTRAL FOOTHILLS

CITY           SKY/WX    TMP DP  RH WIND       PRES   REMARKS
CHARLOTTESVILL MOCLDY    71  70  96 CALM      30.03S FOG
CULPEPER*      CLEAR     70  69  96 CALM      30.03S
ORANGE*        PTCLDY    72  70  94 CALM      30.04R
GORDONSVILLE*  CLOUDY    70  70 100 CALM      30.02S
WARRENTON*     FAIR      71  70  98 CALM      30.02S

$$

VAZ055>057-280600-
NORTH AND CENTRAL PIEDMONT

CITY           SKY/WX    TMP DP  RH WIND       PRES   REMARKS
FREDERICKSBRG* CLEAR     74  70  88 CALM      30.01S
STAFFORD*      CLOUDY    71  67  88 CALM      30.06S

$$

NCZ024-NYZ072-PAZ021-071-VAZ022-071-280600-
OTHER REGIONAL OBSERVATIONS

CITY           SKY/WX    TMP DP  RH WIND       PRES   REMARKS
NEW YORK CITY  MOCLDY    77  67  71 W5        30.04F
PHILADELPHIA   PTCLDY    77  71  82 S6        30.02S
PITTSBURGH     PTCLDY    76  64  66 N5        30.04S
ROANOKE        PTCLDY    75  71  87 NE12      30.07R
RICHMOND       CLOUDY    77  72  84 SE5       30.01S
RALEIGH        MOCLDY    78  70  76 S5        30.02S

$$

ANZ530>537-280600-
MARINE OBSERVATIONS

STATION/POSITION TIME  TEMP    WIND        PRES
                       AIR SEA DIR/SP/G
                 (UTC) (F)     (DEG/KT/KT) (MB)
THOMAS PT LIGHT  NOT AVBL
BALT KEY BRIDGE  0400   79     210/  4/  5 1015.9R
COVE POINT       0400   76     230/  8/ 10 1016.9R
LEWISETTA        0400   76 81  210/  2/  3 1015.9S
SOLOMONS ISLAND  0400      82                N/A

$$




USA.gov is the U.S. government's official web portal to all federal, state and local government web resources and services.